Location: B?jaj?g
(11.7167°N, 92.6667°E)
Time: 05:28:51
(UTC+00:00)

Palapa 6 Rocket - Pass Details

Date: 18 September 2020
Orbit: 485 x 1217 km, 22.7° (Epoch: 20 October)

Event Time Altitude Azimuth Distance (km) Brightness Sun altitude
Exits shadow 22:38:07 20° 284° (WNW) 2,381 5.4 -15.6°
Maximum altitude 22:43:49 73° 202° (SSW) 1,245 4.4 -14.2°
Drops below altitude 10° 22:51:52 10° 119° (ESE) 3,144 7.6 -12.3°
Sets 22:54:44 0° 117° (ESE) 4,081 8.3 -11.6°
